EW6603 Weather Reports


Display with metric or nautical units.
time (UTC)temp
F
wind
direction
speed
MPH
gust
MPH
rain 1hr
in
rain 24hr
in
rain mn
in
humidity
%
barometer
mb
20260503013115 53 236 0.0 0.0 0.00 0.00 0.00 57 1013.7
20260503013028 53 236 0.0 0.0 0.00 0.00 0.00 59 1013.7
20260503012920 53 236 0.0 0.0 0.00 0.00 0.00 59 1013.7
20260503012826 53 236 0.0 0.0 0.00 0.00 0.00 57 1013.7
20260503012713 53 236 0.0 0.0 0.00 0.00 0.00 56 1013.7
20260503012618 53 236 0.0 0.0 0.00 0.00 0.00 56 1013.7
20260503012531 53 236 0.0 0.0 0.00 0.00 0.00 54 1013.7
20260503012416 53 236 0.0 0.0 0.00 0.00 0.00 54 1013.7
20260503012321 53 236 0.0 0.0 0.00 0.00 0.00 54 1013.6
20260503012217 54 236 0.0 0.0 0.00 0.00 0.00 55 1013.6
20260503012142 54 236 0.0 0.0 0.00 0.00 0.00 54 1013.6
20260503012034 54 236 0.0 0.0 0.00 0.00 0.00 54 1013.6
20260503011920 54 236 0.0 0.0 0.00 0.00 0.00 55 1013.6
20260503011817 54 236 0.0 0.0 0.00 0.00 0.00 58 1013.5
20260503011723 54 236 0.0 0.0 0.00 0.00 0.00 54 1013.5
20260503011612 54 236 0.0 0.0 0.00 0.00 0.00 57 1013.5
20260503011538 54 236 0.0 0.0 0.00 0.00 0.00 58 1013.5
20260503011518 54 236 0.0 0.0 0.00 0.00 0.00 58 1013.5
20260503011431 54 236 0.0 0.0 0.00 0.00 0.00 54 1013.5
20260503011343 54 236 0.0 0.0 0.00 0.00 0.00 50 1013.5
20260503011235 54 236 0.0 0.0 0.00 0.00 0.00 51 1013.5
20260503011120 54 236 0.0 0.0 0.00 0.00 0.00 51 1013.5
20260503011027 54 236 0.0 0.0 0.00 0.00 0.00 54 1013.5
20260503010917 54 236 0.0 0.0 0.00 0.00 0.00 52 1013.4
20260503010823 54 236 0.0 0.0 0.00 0.00 0.00 50 1013.4
20260503010709 55 236 0.0 0.0 0.00 0.00 0.00 52 1013.4
20260503010622 55 236 0.0 0.0 0.00 0.00 0.00 53 1013.4
20260503010548 55 236 0.0 0.0 0.00 0.00 0.00 54 1013.4
20260503010413 55 236 0.0 4.0 0.00 0.00 0.00 53 1013.4
20260503010329 55 236 0.0 4.0 0.00 0.00 0.00 51 1013.4
20260503010216 55 236 0.0 4.0 0.00 0.00 0.00 44 1013.4
20260503010122 55 237 0.0 4.0 0.00 0.00 0.00 45 1013.4
20260503010058 54 238 0.0 4.0 0.00 0.00 0.00 49 1013.3
20260503010027 54 244 0.0 4.0 0.00 0.00 0.00 49 1013.3
20260503005914 54 306 0.0 4.0 0.00 0.00 0.00 52 1013.3
20260503005847 54 311 0.0 4.0 0.00 0.00 0.00 49 1013.3
20260503005736 54 311 0.0 4.0 0.00 0.00 0.00 45 1013.3
20260503005621 54 260 0.0 4.0 0.00 0.00 0.00 44 1013.3
20260503005534 54 131 0.0 4.0 0.00 0.00 0.00 51 1013.3
20260503005420 54 26 0.0 0.0 0.00 0.00 0.00 56 1013.3
20260503005326 54 5 0.0 0.0 0.00 0.00 0.00 55 1013.3
20260503005215 54 5 0.0 0.0 0.00 0.00 0.00 55 1013.2
20260503005122 54 5 0.0 0.0 0.00 0.00 0.00 52 1013.2
20260503005035 54 5 0.0 0.0 0.00 0.00 0.00 51 1013.3
20260503004914 54 34 0.0 0.0 0.00 0.00 0.00 51 1013.2
20260503004826 54 37 0.0 0.0 0.00 0.00 0.00 52 1013.2
20260503004728 54 113 0.0 0.0 0.00 0.00 0.00 49 1013.1
20260503004618 54 113 0.0 0.0 0.00 0.00 0.00 53 1013.1
20260503004543 54 126 0.0 0.0 0.00 0.00 0.00 56 1013.1
20260503004525 54 171 0.0 0.0 0.00 0.00 0.00 56 1013.1
20260503004437 54 269 0.0 0.0 0.00 0.00 0.00 55 1013.1
20260503004335 54 269 0.0 0.0 0.00 0.00 0.00 52 1013.1
20260503004247 54 269 0.0 0.0 0.00 0.00 0.00 51 1013.1
20260503004112 54 269 0.0 0.0 0.00 0.00 0.00 50 1013.1
20260503004018 54 261 0.0 0.0 0.00 0.00 0.00 52 1013.0
20260503003928 54 260 0.0 0.0 0.00 0.00 0.00 49 1013.0
20260503003814 54 260 0.0 0.0 0.00 0.00 0.00 48 1013.0
20260503003727 54 246 0.0 0.0 0.00 0.00 0.00 51 1013.0
20260503003613 54 121 0.0 0.0 0.00 0.00 0.00 49 1012.9
20260503003519 54 119 0.0 0.0 0.00 0.00 0.00 52 1012.9
20260503003452 54 26 0.0 0.0 0.00 0.00 0.00 50 1012.9
20260503003317 54 304 0.0 0.0 0.00 0.00 0.00 53 1012.8
20260503003223 54 184 0.0 0.0 0.00 0.00 0.00 61 1012.8
20260503003128 54 286 0.0 0.0 0.00 0.00 0.00 62 1012.8
20260503003058 53 286 0.0 0.0 0.00 0.00 0.00 55 1012.8
20260503003014 54 282 0.0 0.0 0.00 0.00 0.00 61 1012.8
20260503002947 54 282 0.0 0.0 0.00 0.00 0.00 61 1012.8
20260503002815 54 282 0.0 0.0 0.00 0.00 0.00 59 1012.8
20260503002719 54 282 0.0 0.0 0.00 0.00 0.00 59 1012.7
20260503002652 54 282 0.0 0.0 0.00 0.00 0.00 60 1012.7
20260503002517 54 282 0.0 0.0 0.00 0.00 0.00 60 1012.7
20260503002423 54 282 0.0 0.0 0.00 0.00 0.00 60 1012.7
20260503002310 54 282 0.0 0.0 0.00 0.00 0.00 55 1012.6
20260503002220 54 282 0.0 0.0 0.00 0.00 0.00 54 1012.6
20260503002134 54 282 0.0 0.0 0.00 0.00 0.00 56 1012.6
20260503002013 54 282 0.0 0.0 0.00 0.00 0.00 55 1012.5
20260503001943 55 282 0.0 0.0 0.00 0.00 0.00 54 1012.5
20260503001809 55 282 0.0 0.0 0.00 0.00 0.00 51 1012.5
20260503001715 55 282 0.0 0.0 0.00 0.00 0.00 49 1012.5
20260503001632 55 282 0.0 0.0 0.00 0.00 0.00 51 1012.5
20260503001518 55 282 0.0 0.0 0.00 0.00 0.00 51 1012.5
20260503001506 54 282 0.0 0.0 0.00 0.00 0.00 51 1012.5
20260503001424 55 282 0.0 0.0 0.00 0.00 0.00 53 1012.5
20260503001310 55 282 0.0 0.0 0.00 0.00 0.00 51 1012.5
20260503001215 55 282 0.0 0.0 0.00 0.00 0.00 53 1012.5
20260503001118 55 282 0.0 0.0 0.00 0.00 0.00 53 1012.5
20260503001035 55 282 0.0 0.0 0.00 0.00 0.00 52 1012.5
20260503000921 55 282 0.0 0.0 0.00 0.00 0.00 51 1012.4
20260503000826 55 282 0.0 0.0 0.00 0.00 0.00 50 1012.4
20260503000710 55 282 0.0 0.0 0.00 0.00 0.00 52 1012.4
20260503000615 55 282 0.0 0.0 0.00 0.00 0.00 52 1012.4
20260503000529 55 282 0.0 0.0 0.00 0.00 0.00 52 1012.4
20260503000437 56 282 0.0 0.0 0.00 0.00 0.00 50 1012.4
20260503000321 56 292 0.0 0.0 0.00 0.00 0.00 52 1012.4
20260503000227 56 292 0.0 0.0 0.00 0.00 0.00 53 1012.4
20260503000112 56 292 0.0 0.0 0.00 0.00 0.00 51 1012.4
20260503000056 56 292 0.0 0.0 0.00 0.00 0.00 51 1012.4
20260503000018 56 292 0.0 0.0 0.00 0.00 0.00 55 1012.4
20260502235935 56 292 0.0 0.0 0.00 0.00 0.00 53 1012.4
20260502235821 56 292 0.0 0.0 0.00 0.00 0.00 55 1012.3
20260502235727 56 292 0.0 0.0 0.00 0.00 0.00 50 1012.3
20260502235613 56 292 0.0 0.0 0.00 0.00 0.00 49 1012.3
20260502235520 56 292 0.0 0.0 0.00 0.00 0.00 48 1012.3
20260502235429 56 292 0.0 0.0 0.00 0.00 0.00 50 1012.3
20260502235314 57 292 0.0 0.0 0.00 0.00 0.00 49 1012.3
20260502235226 57 292 0.0 0.0 0.00 0.00 0.00 47 1012.3
20260502235125 57 292 0.0 0.0 0.00 0.00 0.00 46 1012.3
20260502235011 57 292 0.0 0.0 0.00 0.00 0.00 43 1012.2
20260502234944 57 292 0.0 0.0 0.00 0.00 0.00 43 1012.2
20260502234813 57 292 0.0 0.0 0.00 0.00 0.00 42 1012.1
20260502234718 57 292 0.0 0.0 0.00 0.00 0.00 43 1012.1
20260502234624 57 5 0.0 0.0 0.00 0.00 0.00 42 1012.1
20260502234546 56 5 0.0 0.0 0.00 0.00 0.00 42 1012.0
20260502234510 57 5 0.0 0.0 0.00 0.00 0.00 42 1012.0
20260502234443 57 5 0.0 0.0 0.00 0.00 0.00 41 1012.0
20260502234328 57 5 0.0 0.0 0.00 0.00 0.00 41 1012.1
20260502234218 57 5 0.0 0.0 0.00 0.00 0.00 43 1012.0
20260502234151 57 5 0.0 0.0 0.00 0.00 0.00 44 1012.0
20260502234016 57 5 0.0 0.0 0.00 0.00 0.00 46 1012.0
20260502233922 57 5 0.0 0.0 0.00 0.00 0.00 45 1012.0
20260502233855 57 299 0.0 0.0 0.00 0.00 0.00 44 1011.9
20260502233710 57 299 0.0 0.0 0.00 0.00 0.00 44 1011.9
20260502233643 57 299 0.0 0.0 0.00 0.00 0.00 44 1011.9
20260502233532 57 297 0.0 0.0 0.00 0.00 0.00 43 1012.0
20260502233444 57 294 0.0 0.0 0.00 0.00 0.00 42 1012.0
20260502233309 57 294 0.0 0.0 0.00 0.00 0.00 42 1012.0
20260502233215 57 294 0.0 0.0 0.00 0.00 0.00 40 1012.0
20260502233128 57 294 0.0 0.0 0.00 0.00 0.00 40 1012.0
20260502233014 57 304 0.0 0.0 0.00 0.00 0.00 42 1011.9
20260502233004 57 304 0.0 0.0 0.00 0.00 0.00 42 1011.9
20260502232924 57 302 0.0 0.0 0.00 0.00 0.00 40 1011.9
20260502232810 57 304 0.0 0.0 0.00 0.00 0.00 40 1011.8
20260502232716 57 40 0.0 0.0 0.00 0.00 0.00 42 1011.9
20260502232622 58 264 0.0 0.0 0.00 0.00 0.00 41 1011.9
20260502232535 58 269 0.0 0.0 0.00 0.00 0.00 42 1011.9
20260502232424 58 269 0.0 1.0 0.00 0.00 0.00 42 1011.9
20260502232311 58 266 0.0 3.0 0.00 0.00 0.00 41 1011.8
20260502232217 58 296 0.0 4.0 0.00 0.00 0.00 40 1011.8
20260502232122 58 172 0.0 4.0 0.00 0.00 0.00 42 1011.8
20260502232036 58 268 0.0 4.0 0.00 0.00 0.00 39 1011.8
20260502231920 58 42 0.0 4.0 0.00 0.00 0.00 41 1011.8
20260502231839 58 306 0.0 4.0 0.00 0.00 0.00 40 1011.8
20260502231712 58 143 0.0 4.0 0.00 0.00 0.00 39 1011.8
20260502231624 58 117 0.0 4.0 0.00 0.00 0.00 40 1011.8
20260502231616 57 252 0.0 4.0 0.00 0.00 0.00 42 1011.8
20260502231510 58 279 0.0 4.0 0.00 0.00 0.00 40 1011.8
20260502231416 58 309 0.0 4.0 0.00 0.00 0.00 42 1011.8
20260502231322 58 300 0.0 0.0 0.00 0.00 0.00 42 1011.8
20260502231212 58 281 0.0 0.0 0.00 0.00 0.00 43 1011.7
20260502231125 58 280 0.0 0.0 0.00 0.00 0.00 41 1011.7
20260502231031 58 280 0.0 0.0 0.00 0.00 0.00 40 1011.8
20260502230917 58 280 0.0 0.0 0.00 0.00 0.00 42 1011.8
20260502230844 58 280 0.0 0.0 0.00 0.00 0.00 40 1011.8
20260502230709 58 327 0.0 0.0 0.00 0.00 0.00 43 1011.8
20260502230626 58 333 0.0 0.0 0.00 0.00 0.00 42 1011.8
20260502230513 58 298 0.0 0.0 0.00 0.00 0.00 42 1011.7
20260502230418 58 296 0.0 0.0 0.00 0.00 0.00 43 1011.7
20260502230324 58 294 0.0 0.0 0.00 0.00 0.00 40 1011.7
20260502230210 58 296 0.0 0.0 0.00 0.00 0.00 40 1011.7
20260502230127 58 297 0.0 0.0 0.00 0.00 0.00 40 1011.7
20260502230033 58 36 0.0 0.0 0.00 0.00 0.00 40 1011.7
20260502230010 58 302 0.0 1.0 0.00 0.00 0.00 40 1011.6
20260502225919 58 268 0.0 1.0 0.00 0.00 0.00 42 1011.6
20260502225833 58 264 0.0 1.0 0.00 0.00 0.00 41 1011.6
20260502225731 58 298 0.0 1.0 0.00 0.00 0.00 41 1011.7
20260502225623 58 266 0.0 1.0 0.00 0.00 0.00 43 1011.7
20260502225513 58 286 0.0 1.0 0.00 0.00 0.00 43 1011.7
20260502225419 58 263 0.0 1.0 0.00 0.00 0.00 44 1011.6
20260502225325 58 246 0.0 1.0 0.00 0.00 0.00 44 1011.6
20260502225231 58 266 0.0 1.0 0.00 0.00 0.00 42 1011.6
20260502225123 58 291 0.0 0.0 0.00 0.00 0.00 43 1011.6
20260502225009 58 292 0.0 2.0 0.00 0.00 0.00 41 1011.6
20260502224919 58 275 0.0 2.0 0.00 0.00 0.00 41 1011.6
20260502224852 59 298 0.0 2.0 0.00 0.00 0.00 41 1011.6
20260502224717 59 313 0.0 2.0 0.00 0.00 0.00 43 1011.6
20260502224619 59 313 0.0 2.0 0.00 0.00 0.00 42 1011.6
20260502224548 58 313 0.0 2.0 0.00 0.00 0.00 42 1011.5
20260502224525 59 313 0.0 2.0 0.00 0.00 0.00 42 1011.6
20260502224411 59 284 0.0 2.0 0.00 0.00 0.00 43 1011.5
20260502224328 59 278 0.0 2.0 0.00 0.00 0.00 41 1011.5
20260502224234 59 277 0.0 2.0 0.00 0.00 0.00 40 1011.5
20260502224140 59 270 0.0 2.0 0.00 0.00 0.00 39 1011.5
20260502224025 59 305 0.0 0.0 0.00 0.00 0.00 41 1011.5
20260502223911 59 286 0.0 0.0 0.00 0.00 0.00 42 1011.5
20260502223844 59 286 0.0 0.0 0.00 0.00 0.00 41 1011.5
20260502223713 59 288 0.0 0.0 0.00 0.00 0.00 39 1011.4
20260502223619 59 268 0.0 0.0 0.00 0.00 0.00 41 1011.4
20260502223532 59 296 0.0 0.0 0.00 0.00 0.00 40 1011.4
20260502223411 59 293 0.0 0.0 0.00 0.00 0.00 42 1011.3
20260502223324 59 307 0.0 0.0 0.00 0.00 0.00 42 1011.3
20260502223213 60 300 0.0 0.0 0.00 0.00 0.00 43 1011.4
20260502223120 60 307 0.0 0.0 0.00 0.00 0.00 43 1011.4
20260502223042 59 309 0.0 0.0 0.00 0.00 0.00 43 1011.3
20260502223026 60 11 0.0 0.0 0.00 0.00 0.00 43 1011.4
20260502222939 60 283 0.0 0.0 0.00 0.00 0.00 43 1011.4
20260502222823 60 283 0.0 0.0 0.00 0.00 0.00 43 1011.4
20260502222709 60 283 0.0 0.0 0.00 0.00 0.00 40 1011.4
20260502222620 60 283 0.0 0.0 0.00 0.00 0.00 42 1011.4
20260502222532 60 287 0.0 0.0 0.00 0.00 0.00 44 1011.4
20260502222411 60 286 0.0 0.0 0.00 0.00 0.00 42 1011.3
20260502222324 60 360 0.0 0.0 0.00 0.00 0.00 44 1011.3
20260502222210 60 21 0.0 0.0 0.00 0.00 0.00 42 1011.4
20260502222116 60 34 0.0 0.0 0.00 0.00 0.00 45 1011.4
20260502222026 60 294 0.0 0.0 0.00 0.00 0.00 41 1011.4
20260502221912 60 273 0.0 0.0 0.00 0.00 0.00 42 1011.3
20260502221825 60 240 0.0 0.0 0.00 0.00 0.00 43 1011.3
20260502221731 60 271 0.0 0.0 0.00 0.00 0.00 42 1011.3
20260502221637 60 238 0.0 0.0 0.00 0.00 0.00 41 1011.3
20260502221550 60 250 0.0 0.0 0.00 0.00 0.00 41 1011.3
20260502221508 59 278 0.0 0.0 0.00 0.00 0.00 43 1011.2
20260502221418 60 306 0.0 0.0 0.00 0.00 0.00 42 1011.3
20260502221324 60 303 0.0 0.0 0.00 0.00 0.00 43 1011.3
20260502221230 60 279 0.0 0.0 0.00 0.00 0.00 42 1011.3
20260502221122 60 301 0.0 0.0 0.00 0.00 0.00 41 1011.3
20260502221028 60 301 0.0 0.0 0.00 0.00 0.00 42 1011.3
20260502220914 60 295 0.0 0.0 0.00 0.00 0.00 42 1011.3
20260502220824 60 295 0.0 0.0 0.00 0.00 0.00 42 1011.3
20260502220710 60 295 0.0 0.0 0.00 0.00 0.00 40 1011.2
20260502220616 60 300 0.0 0.0 0.00 0.00 0.00 42 1011.3
20260502220529 60 300 0.0 0.0 0.00 0.00 0.00 43 1011.3
20260502220415 60 300 0.0 0.0 0.00 0.00 0.00 42 1011.2
20260502220326 60 300 0.0 0.0 0.00 0.00 0.00 40 1011.2
20260502220211 60 5 0.0 0.0 0.00 0.00 0.00 39 1011.3
20260502220144 60 12 0.0 0.0 0.00 0.00 0.00 38 1011.3
20260502220111 59 12 0.0 0.0 0.00 0.00 0.00 38 1011.2
20260502220009 60 349 0.0 0.0 0.00 0.00 0.00 39 1011.3
20260502215911 60 5 0.0 0.0 0.00 0.00 0.00 39 1011.3
20260502215817 60 360 0.0 0.0 0.00 0.00 0.00 40 1011.3
20260502215750 60 360 0.0 0.0 0.00 0.00 0.00 40 1011.3
20260502215619 60 300 0.0 0.0 0.00 0.00 0.00 43 1011.3
20260502215545 60 327 0.0 0.0 0.00 0.00 0.00 42 1011.3
20260502215411 60 327 0.0 0.0 0.00 0.00 0.00 42 1011.2
20260502215344 60 291 0.0 0.0 0.00 0.00 0.00 41 1011.2
20260502215209 60 314 0.0 0.0 0.00 0.00 0.00 40 1011.2
20260502215116 60 334 0.0 0.0 0.00 0.00 0.00 41 1011.2
20260502215033 60 265 0.0 0.0 0.00 0.00 0.00 41 1011.2
20260502214919 60 271 0.0 5.0 0.00 0.00 0.00 42 1011.2
20260502214825 60 271 0.0 5.0 0.00 0.00 0.00 41 1011.2
20260502214731 60 135 0.0 5.0 0.00 0.00 0.00 41 1011.2
20260502214616 60 233 0.0 5.0 0.00 0.00 0.00 42 1011.2
20260502214529 60 298 0.0 5.0 0.00 0.00 0.00 40 1011.2
20260502214511 60 320 0.0 5.0 0.00 0.00 0.00 40 1011.1
20260502214419 61 265 0.0 5.0 0.00 0.00 0.00 40 1011.2
20260502214325 61 310 0.0 5.0 0.00 0.00 0.00 41 1011.2
20260502214211 61 330 0.0 5.0 0.00 0.00 0.00 41 1011.2
20260502214144 61 355 0.0 5.0 0.00 0.00 0.00 41 1011.2
20260502214029 61 273 0.0 0.0 0.00 0.00 0.00 42 1011.1
20260502213918 61 207 0.0 0.0 0.00 0.00 0.00 41 1011.1
20260502213825 61 295 0.0 0.0 0.00 0.00 0.00 40 1011.1
20260502213711 61 305 0.0 0.0 0.00 0.00 0.00 39 1011.1
20260502213617 61 315 0.0 0.0 0.00 0.00 0.00 39 1011.0
20260502213529 61 18 0.0 0.0 0.00 0.00 0.00 41 1011.0
20260502213416 61 290 0.0 0.0 0.00 0.00 0.00 44 1011.0
20260502213346 61 215 0.0 0.0 0.00 0.00 0.00 40 1011.0
20260502213210 61 261 0.0 0.0 0.00 0.00 0.00 40 1011.0
20260502213124 61 264 0.0 0.0 0.00 0.00 0.00 39 1011.0
20260502213029 61 264 0.0 0.0 0.00 0.00 0.00 40 1011.0
20260502213005 60 269 0.0 0.0 0.00 0.00 0.00 40 1010.9
20260502212916 61 311 0.0 0.0 0.00 0.00 0.00 41 1011.0
20260502212822 61 296 0.0 0.0 0.00 0.00 0.00 40 1011.0
20260502212713 61 295 0.0 0.0 0.00 0.00 0.00 40 1011.0
20260502212618 61 296 0.0 0.0 0.00 0.00 0.00 39 1011.0
20260502212532 61 276 0.0 0.0 0.00 0.00 0.00 39 1011.0
20260502212418 61 266 0.0 0.0 0.00 0.00 0.00 39 1011.0
20260502212324 61 275 0.0 0.0 0.00 0.00 0.00 40 1011.0
20260502212213 61 318 0.0 0.0 0.00 0.00 0.00 40 1011.0
20260502212120 61 257 0.0 0.0 0.00 0.00 0.00 40 1011.0
20260502212025 61 266 0.0 0.0 0.00 0.00 0.00 39 1011.0
20260502211911 61 44 0.0 0.0 0.00 0.00 0.00 39 1010.9
20260502211824 61 69 0.0 0.0 0.00 0.00 0.00 39 1010.9
20260502211714 61 71 0.0 0.0 0.00 0.00 0.00 38 1010.9
20260502211621 61 250 0.0 0.0 0.00 0.00 0.00 38 1011.0
20260502211555 60 286 0.0 0.0 0.00 0.00 0.00 38 1010.9
20260502211526 61 17 0.0 0.0 0.00 0.00 0.00 39 1011.0
20260502211412 61 276 0.0 0.0 0.00 0.00 0.00 38 1011.0
20260502211314 61 19 0.0 0.0 0.00 0.00 0.00 42 1011.0
20260502211227 61 233 0.0 0.0 0.00 0.00 0.00 40 1011.0
20260502211117 61 281 0.0 0.0 0.00 0.00 0.00 39 1011.0
20260502211017 61 31 0.0 0.0 0.00 0.00 0.00 40 1011.0
20260502210922 61 350 0.0 0.0 0.00 0.00 0.00 39 1011.0
20260502210835 61 36 0.0 0.0 0.00 0.00 0.00 37 1011.0
20260502210721 61 26 0.0 0.0 0.00 0.00 0.00 38 1010.9
20260502210611 61 296 0.0 0.0 0.00 0.00 0.00 43 1010.9
20260502210537 61 247 0.0 0.0 0.00 0.00 0.00 43 1010.9
20260502210422 61 285 0.0 0.0 0.00 0.00 0.00 43 1010.9
20260502210336 61 295 0.0 0.0 0.00 0.00 0.00 44 1010.9
20260502210221 61 286 0.0 0.0 0.00 0.00 0.00 43 1011.0
20260502210127 61 261 0.0 0.0 0.00 0.00 0.00 42 1010.9
20260502210054 60 292 0.0 0.0 0.00 0.00 0.00 45 1010.9
20260502210017 61 298 0.0 0.0 0.00 0.00 0.00 45 1010.9
20260502205923 61 298 0.0 0.0 0.00 0.00 0.00 42 1010.9
20260502205809 61 271 0.0 0.0 0.00 0.00 0.00 41 1010.9
20260502205715 61 291 0.0 0.0 0.00 0.00 0.00 41 1010.9
20260502205628 61 290 0.0 0.0 0.00 0.00 0.00 40 1010.9
20260502205514 61 276 0.0 0.0 0.00 0.00 0.00 40 1010.9
20260502205424 61 292 0.0 0.0 0.00 0.00 0.00 41 1010.9
20260502205310 61 288 0.0 0.0 0.00 0.00 0.00 41 1011.0
20260502205243 61 274 0.0 4.0 0.00 0.00 0.00 40 1011.0
20260502205128 61 240 0.0 4.0 0.00 0.00 0.00 40 1011.0
20260502205014 61 270 0.0 4.0 0.00 0.00 0.00 39 1011.0
20260502204921 61 315 0.0 4.0 0.00 0.00 0.00 40 1010.9
20260502204811 61 188 0.0 4.0 0.00 0.00 0.00 40 1010.9
20260502204744 61 313 0.0 4.0 0.00 0.00 0.00 40 1010.9
20260502204609 61 69 0.0 4.0 0.00 0.00 0.00 42 1011.0
20260502204549 61 94 0.0 4.0 0.00 0.00 0.00 42 1010.8
20260502204515 61 313 0.0 4.0 0.00 0.00 0.00 40 1011.0
20260502204421 61 340 0.0 4.0 0.00 0.00 0.00 41 1010.9
20260502204311 61 346 0.0 2.0 0.00 0.00 0.00 43 1010.9
20260502204224 61 266 0.0 0.0 0.00 0.00 0.00 42 1010.9
20260502204109 61 5 0.0 0.0 0.00 0.00 0.00 41 1011.0
20260502204015 61 300 0.0 0.0 0.00 0.00 0.00 41 1011.0
20260502203921 61 315 0.0 0.0 0.00 0.00 0.00 39 1011.0
20260502203854 61 177 0.0 0.0 0.00 0.00 0.00 41 1011.0
20260502203723 61 179 0.0 0.0 0.00 0.00 0.00 39 1011.0
20260502203610 61 32 0.0 0.0 0.00 0.00 0.00 41 1011.0
20260502203516 61 317 0.0 1.0 0.00 0.00 0.00 40 1011.0
20260502203422 61 331 0.0 1.0 0.00 0.00 0.00 42 1011.0
20260502203335 61 34 0.0 1.0 0.00 0.00 0.00 42 1011.0
20260502203241 61 11 0.0 1.0 0.00 0.00 0.00 42 1011.0
20260502203110 61 43 0.0 1.0 0.00 0.00 0.00 41 1011.0
20260502203043 60 38 0.0 1.0 0.00 0.00 0.00 41 1010.9
20260502203016 61 312 0.0 1.0 0.00 0.00 0.00 41 1011.1
20260502202922 61 355 0.0 1.0 0.00 0.00 0.00 43 1011.1
20260502202835 61 37 0.0 1.0 0.00 0.00 0.00 41 1011.1
20260502202741 61 37 0.0 1.0 0.00 0.00 0.00 40 1011.1
20260502202626 61 32 0.0 1.0 0.00 0.00 0.00 40 1011.1
20260502202516 61 32 0.0 0.0 0.00 0.00 0.00 40 1011.2
20260502202429 61 103 0.0 0.0 0.00 0.00 0.00 40 1011.2
20260502202316 60 100 0.0 0.0 0.00 0.00 0.00 42 1011.2
20260502202221 60 38 0.0 0.0 0.00 0.00 0.00 41 1011.2
20260502202147 60 325 0.0 0.0 0.00 0.00 0.00 39 1011.2
20260502202012 60 344 0.0 0.0 0.00 0.00 0.00 40 1011.2
20260502201929 60 57 0.0 0.0 0.00 0.00 0.00 41 1011.2
20260502201815 60 49 0.0 0.0 0.00 0.00 0.00 41 1011.2
20260502201741 60 49 0.0 1.0 0.00 0.00 0.00 42 1011.2
20260502201633 60 49 0.0 1.0 0.00 0.00 0.00 41 1011.2
20260502201519 60 61 0.0 1.0 0.00 0.00 0.00 41 1011.2
20260502201508 60 60 0.0 1.0 0.00 0.00 0.00 41 1011.1
20260502201409 60 32 0.0 1.0 0.00 0.00 0.00 41 1011.2
20260502201315 60 31 0.0 1.0 0.00 0.00 0.00 41 1011.2
20260502201221 61 45 0.0 1.0 0.00 0.00 0.00 40 1011.2
20260502201127 60 211 0.0 1.0 0.00 0.00 0.00 41 1011.3
20260502201040 61 125 0.0 1.0 0.00 0.00 0.00 40 1011.2
20260502200925 61 160 0.0 1.0 0.00 0.00 0.00 41 1011.2
20260502200817 61 180 0.0 0.0 0.00 0.00 0.00 41 1011.2
20260502200722 61 184 0.0 0.0 0.00 0.00 0.00 43 1011.2
20260502200635 61 69 0.0 0.0 0.00 0.00 0.00 41 1011.2
20260502200520 61 84 0.0 0.0 0.00 0.00 0.00 43 1011.2
20260502200426 61 286 0.0 0.0 0.00 0.00 0.00 42 1011.2
20260502200312 61 323 0.0 0.0 0.00 0.00 0.00 41 1011.2
20260502200230 61 304 0.0 0.0 0.00 0.00 0.00 42 1011.2
20260502200135 61 298 0.0 0.0 0.00 0.00 0.00 41 1011.2
20260502200109 60 299 0.0 0.0 0.00 0.00 0.00 44 1011.1
20260502200018 61 315 0.0 0.0 0.00 0.00 0.00 42 1011.2
20260502195945 61 12 0.0 0.0 0.00 0.00 0.00 43 1011.2
20260502195837 61 5 0.0 0.0 0.00 0.00 0.00 41 1011.2
20260502195715 61 336 0.0 0.0 0.00 0.00 0.00 42 1011.2
20260502195626 61 285 0.0 0.0 0.00 0.00 0.00 42 1011.2
20260502195512 61 285 0.0 0.0 0.00 0.00 0.00 42 1011.3
20260502195417 61 284 0.0 1.0 0.00 0.00 0.00 40 1011.3
20260502195323 61 284 0.0 1.0 0.00 0.00 0.00 40 1011.3
20260502195209 61 205 0.0 1.0 0.00 0.00 0.00 41 1011.3
20260502195122 61 205 0.0 1.0 0.00 0.00 0.00 41 1011.3
20260502195012 61 228 0.0 1.0 0.00 0.00 0.00 42 1011.3
20260502194919 61 229 0.0 1.0 0.00 0.00 0.00 40 1011.3
20260502194824 61 288 0.0 1.0 0.00 0.00 0.00 39 1011.3
20260502194711 61 42 0.0 1.0 0.00 0.00 0.00 41 1011.4
20260502194616 61 77 0.0 1.0 0.00 0.00 0.00 40 1011.4
20260502194533 61 53 0.0 0.0 0.00 0.00 0.00 39 1011.4
20260502194507 61 97 0.0 0.0 0.00 0.00 0.00 39 1011.3
20260502194420 61 101 0.0 0.0 0.00 0.00 0.00 39 1011.4
20260502194325 61 207 0.0 0.0 0.00 0.00 0.00 39 1011.4
20260502194211 61 108 0.0 0.0 0.00 0.00 0.00 41 1011.3
20260502194117 61 21 0.0 0.0 0.00 0.00 0.00 42 1011.4
20260502194030 61 335 0.0 0.0 0.00 0.00 0.00 41 1011.4
20260502193920 61 322 0.0 0.0 0.00 0.00 0.00 42 1011.4
20260502193826 61 13 0.0 0.0 0.00 0.00 0.00 42 1011.4
20260502193713 61 103 0.0 0.0 0.00 0.00 0.00 43 1011.4
20260502193619 61 103 0.0 0.0 0.00 0.00 0.00 40 1011.3
20260502193525 61 327 0.0 0.0 0.00 0.00 0.00 40 1011.3
20260502193414 61 323 0.0 0.0 0.00 0.00 0.00 40 1011.4
20260502193327 61 311 0.0 0.0 0.00 0.00 0.00 40 1011.4
20260502193250 61 309 0.0 0.0 0.00 0.00 0.00 38 1011.4
20260502193112 61 318 0.0 5.0 0.00 0.00 0.00 41 1011.5
20260502193025 61 295 0.0 5.0 0.00 0.00 0.00 39 1011.5
20260502193016 60 283 0.0 5.0 0.00 0.00 0.00 39 1011.4
20260502192931 61 302 0.0 5.0 0.00 0.00 0.00 39 1011.5
20260502192821 61 315 0.0 5.0 0.00 0.00 0.00 39 1011.6
20260502192727 61 314 0.0 5.0 0.00 0.00 0.00 38 1011.6
20260502192613 61 298 0.0 5.0 0.00 0.00 0.00 38 1011.6
20260502192519 61 300 0.0 5.0 0.00 0.00 0.00 39 1011.6
20260502192432 61 304 1.0 5.0 0.00 0.00 0.00 39 1011.6
20260502192321 61 256 1.0 5.0 0.00 0.00 0.00 38 1011.5
20260502192244 62 282 0.0 1.0 0.00 0.00 0.00 39 1011.5
20260502192109 62 312 0.0 1.0 0.00 0.00 0.00 40 1011.6
20260502192042 62 256 0.0 1.0 0.00 0.00 0.00 40 1011.6
20260502191927 62 117 0.0 3.0 0.00 0.00 0.00 41 1011.6
20260502191832 62 253 0.0 3.0 0.00 0.00 0.00 41 1011.5
20260502191724 62 233 0.0 3.0 0.00 0.00 0.00 40 1011.5
20260502191614 62 334 0.0 10.0 0.00 0.00 0.00 40 1011.6
20260502191601 61 307 0.0 10.0 0.00 0.00 0.00 44 1011.5
20260502191520 62 342 0.0 10.0 0.00 0.00 0.00 39 1011.6
20260502191453 62 284 0.0 10.0 0.00 0.00 0.00 39 1011.6
20260502191318 62 298 0.0 10.0 0.00 0.00 0.00 40 1011.6
20260502191224 62 330 0.0 10.0 0.00 0.00 0.00 41 1011.6
20260502191110 62 306 0.0 10.0 0.00 0.00 0.00 39 1011.6
20260502191019 62 338 0.0 10.0 0.00 0.00 0.00 39 1011.7
20260502190926 62 307 1.0 10.0 0.00 0.00 0.00 38 1011.7
20260502190838 62 268 2.0 10.0 0.00 0.00 0.00 38 1011.7
20260502190741 62 259 0.0 6.0 0.00 0.00 0.00 40 1011.8
20260502190715 62 247 0.0 0.0 0.00 0.00 0.00 39 1011.7
20260502190518 62 290 0.0 0.0 0.00 0.00 0.00 37 1011.8
20260502190428 62 290 0.0 0.0 0.00 0.00 0.00 36 1011.8
20260502190334 62 297 0.0 0.0 0.00 0.00 0.00 37 1011.8
20260502190213 62 287 0.0 0.0 0.00 0.00 0.00 39 1011.9
20260502190126 62 45 0.0 0.0 0.00 0.00 0.00 37 1011.9
20260502190032 62 44 0.0 0.0 0.00 0.00 0.00 39 1011.9
20260502190008 62 15 0.0 0.0 0.00 0.00 0.00 39 1011.8
20260502185938 62 307 0.0 0.0 0.00 0.00 0.00 38 1011.9
20260502185850 62 51 0.0 0.0 0.00 0.00 0.00 38 1011.9
20260502185739 62 53 0.0 0.0 0.00 0.00 0.00 39 1012.0
20260502185624 62 49 0.0 0.0 0.00 0.00 0.00 40 1012.0
20260502185510 62 13 0.0 0.0 0.00 0.00 0.00 37 1012.0
20260502185443 62 240 0.0 0.0 0.00 0.00 0.00 38 1012.0
20260502185355 62 360 0.0 1.0 0.00 0.00 0.00 39 1012.0
20260502185240 62 308 0.0 1.0 0.00 0.00 0.00 38 1012.1
20260502185152 62 308 0.0 1.0 0.00 0.00 0.00 38 1012.1
20260502185021 62 280 0.0 1.0 0.00 0.00 0.00 38 1012.1
20260502184947 62 277 0.0 1.0 0.00 0.00 0.00 38 1012.1
20260502184812 62 276 0.0 1.0 0.00 0.00 0.00 38 1012.1
20260502184718 62 329 0.0 1.0 0.00 0.00 0.00 37 1012.1
20260502184631 62 315 0.0 1.0 0.00 0.00 0.00 39 1012.1
20260502184610 62 5 0.0 1.0 0.00 0.00 0.00 39 1012.0
20260502184517 62 115 0.0 1.0 0.00 0.00 0.00 37 1012.2
20260502184427 62 360 0.0 1.0 0.00 0.00 0.00 37 1012.2
20260502184313 62 290 0.0 1.0 0.00 0.00 0.00 38 1012.2
20260502184219 62 271 0.0 1.0 0.00 0.00 0.00 39 1012.2
20260502184132 62 330 0.0 1.0 0.00 0.00 0.00 39 1012.2
20260502184017 61 306 0.0 1.0 0.00 0.00 0.00 42 1012.2
20260502183923 61 78 0.0 1.0 0.00 0.00 0.00 41 1012.2
20260502183813 61 219 0.0 1.0 0.00 0.00 0.00 41 1012.2
20260502183719 61 180 0.0 0.0 0.00 0.00 0.00 41 1012.3
20260502183632 61 208 0.0 0.0 0.00 0.00 0.00 41 1012.3
20260502183518 61 321 0.0 0.0 0.00 0.00 0.00 42 1012.3
20260502183444 61 315 0.0 0.0 0.00 0.00 0.00 40 1012.3
20260502183313 60 288 0.0 0.0 0.00 0.00 0.00 41 1012.4
20260502183226 60 264 0.0 0.0 0.00 0.00 0.00 40 1012.4
20260502183112 60 195 0.0 0.0 0.00 0.00 0.00 40 1012.4
20260502183106 60 195 0.0 0.0 0.00 0.00 0.00 40 1012.3
20260502183038 60 191 0.0 0.0 0.00 0.00 0.00 40 1012.5
20260502182923 61 191 0.0 0.0 0.00 0.00 0.00 43 1012.5
20260502182808 61 292 0.0 0.0 0.00 0.00 0.00 40 1012.6
20260502182726 60 292 0.0 0.0 0.00 0.00 0.00 40 1012.6
20260502182612 60 46 0.0 0.0 0.00 0.00 0.00 42 1012.6
20260502182518 60 279 0.0 0.0 0.00 0.00 0.00 41 1012.5
20260502182424 60 275 0.0 0.0 0.00 0.00 0.00 40 1012.5
20260502182309 60 330 0.0 0.0 0.00 0.00 0.00 41 1012.6
20260502182215 61 301 0.0 0.0 0.00 0.00 0.00 44 1012.6
20260502182114 60 22 0.0 0.0 0.00 0.00 0.00 43 1012.6
20260502182019 61 315 0.0 1.0 0.00 0.00 0.00 40 1012.6
20260502181925 61 301 0.0 1.0 0.00 0.00 0.00 41 1012.6
20260502181810 61 16 0.0 2.0 0.00 0.00 0.00 40 1012.6
20260502181716 61 295 0.0 2.0 0.00 0.00 0.00 40 1012.6
20260502181633 61 5 0.0 2.0 0.00 0.00 0.00 40 1012.6
20260502181520 61 355 0.0 2.0 0.00 0.00 0.00 40 1012.6
20260502181507 60 355 0.0 2.0 0.00 0.00 0.00 40 1012.5
20260502181425 61 84 0.0 2.0 0.00 0.00 0.00 39 1012.6
20260502181312 61 121 0.0 2.0 0.00 0.00 0.00 39 1012.6
20260502181217 61 34 0.0 2.0 0.00 0.00 0.00 41 1012.6
20260502181123 61 65 0.0 2.0 0.00 0.00 0.00 41 1012.6
20260502181013 61 72 0.0 2.0 0.00 0.00 0.00 43 1012.7
20260502180926 61 327 0.0 1.0 0.00 0.00 0.00 43 1012.7
20260502180812 60 186 0.0 1.0 0.00 0.00 0.00 41 1012.7
20260502180718 60 217 0.0 1.0 0.00 0.00 0.00 41 1012.8
20260502180624 60 202 0.0 1.0 0.00 0.00 0.00 40 1012.8
20260502180514 60 196 0.0 1.0 0.00 0.00 0.00 40 1012.7
20260502180420 60 213 0.0 0.0 0.00 0.00 0.00 42 1012.8
20260502180333 60 297 0.0 0.0 0.00 0.00 0.00 45 1012.8
20260502180220 59 194 0.0 0.0 0.00 0.00 0.00 41 1012.8
20260502180126 59 215 0.0 0.0 0.00 0.00 0.00 42 1012.8
20260502170517 58 257 0.0 0.0 0.00 0.00 0.00 43 1013.6
20260502170422 58 294 0.0 0.0 0.00 0.00 0.00 44 1013.6
20260502170328 58 325 0.0 0.0 0.00 0.00 0.00 47 1013.7
20260502170218 58 28 0.0 0.0 0.00 0.00 0.00 43 1013.7
20260502170124 58 28 0.0 0.0 0.00 0.00 0.00 43 1013.7
20260502164331 58 148 0.0 0.0 0.00 0.00 0.00 43 1013.9
20260502164234 58 240 0.0 0.0 0.00 0.00 0.00 45 1013.9
20260502164112 58 246 0.0 0.0 0.00 0.00 0.00 43 1014.0
20260502164022 58 251 0.0 0.0 0.00 0.00 0.00 43 1014.0
20260502163935 58 256 0.0 0.0 0.00 0.00 0.00 43 1014.0
20260502163820 58 36 0.0 0.0 0.00 0.00 0.00 44 1014.0
20260502163726 58 66 0.0 0.0 0.00 0.00 0.00 45 1014.0
20260502163612 58 35 0.0 0.0 0.00 0.00 0.00 45 1014.0
20260502163519 58 91 0.0 0.0 0.00 0.00 0.00 41 1014.0
20260502163435 58 306 0.0 0.0 0.00 0.00 0.00 42 1014.0
20260502163341 58 157 0.0 0.0 0.00 0.00 0.00 42 1014.0
20260502163226 58 22 0.0 0.0 0.00 0.00 0.00 42 1014.0
20260502163140 58 61 0.0 1.0 0.00 0.00 0.00 43 1014.1
20260502163112 58 61 0.0 1.0 0.00 0.00 0.00 47 1014.0
20260502163024 58 97 0.0 1.0 0.00 0.00 0.00 47 1014.1
20260502162910 58 66 0.0 1.0 0.00 0.00 0.00 46 1014.0
20260502162843 58 30 0.0 1.0 0.00 0.00 0.00 46 1014.0
20260502162712 58 290 0.0 1.0 0.00 0.00 0.00 45 1014.1
20260502162618 58 360 0.0 1.0 0.00 0.00 0.00 46 1014.1
20260502162544 58 50 0.0 1.0 0.00 0.00 0.00 45 1014.1
20260502162409 58 342 0.0 1.0 0.00 0.00 0.00 45 1014.1
20260502162322 58 280 0.0 1.0 0.00 0.00 0.00 45 1014.1
20260502162212 58 360 0.0 0.0 0.00 0.00 0.00 46 1014.0
20260502162118 58 108 0.0 0.0 0.00 0.00 0.00 45 1014.1
20260502162051 58 101 0.0 0.0 0.00 0.00 0.00 44 1014.1
20260502161932 58 90 0.0 0.0 0.00 0.00 0.00 45 1014.2
20260502161817 58 332 0.0 0.0 0.00 0.00 0.00 49 1014.2
20260502161730 57 286 0.0 0.0 0.00 0.00 0.00 47 1014.2
20260502161635 57 9 0.0 0.0 0.00 0.00 0.00 45 1014.2
20260502161525 57 355 0.0 0.0 0.00 0.00 0.00 45 1014.1
20260502161500 57 242 0.0 0.0 0.00 0.00 0.00 45 1014.0
20260502161411 57 242 0.0 0.0 0.00 0.00 0.00 44 1014.1
20260502161317 57 258 0.0 0.0 0.00 0.00 0.00 44 1014.2
20260502161223 57 319 0.0 0.0 0.00 0.00 0.00 46 1014.2
20260502161109 57 290 0.0 0.0 0.00 0.00 0.00 45 1014.3
20260502161026 58 360 0.0 0.0 0.00 0.00 0.00 46 1014.3
20260502160911 58 259 0.0 0.0 0.00 0.00 0.00 45 1014.3
20260502160838 58 291 0.0 0.0 0.00 0.00 0.00 44 1014.3
20260502160750 58 272 0.0 0.0 0.00 0.00 0.00 45 1014.3
20260502160615 58 280 0.0 0.0 0.00 0.00 0.00 48 1014.4
20260502160521 58 273 0.0 5.0 0.00 0.00 0.00 49 1014.4
20260502160411 58 307 0.0 5.0 0.00 0.00 0.00 48 1014.4
20260502160317 57 32 0.0 5.0 0.00 0.00 0.00 47 1014.4
20260502160229 57 74 0.0 5.0 0.00 0.00 0.00 45 1014.4
20260502160136 57 235 0.0 5.0 0.00 0.00 0.00 45 1014.4
20260502152317 59 292 0.0 4.0 0.00 0.00 0.00 45 1014.2
20260502152222 59 303 0.0 4.0 0.00 0.00 0.00 48 1014.2
20260502152155 59 328 1.0 4.0 0.00 0.00 0.00 48 1014.3
20260502152020 59 277 0.0 4.0 0.00 0.00 0.00 43 1014.3
20260502151926 59 43 0.0 3.0 0.00 0.00 0.00 44 1014.2
20260502151812 59 292 0.0 3.0 0.00 0.00 0.00 43 1014.2
20260502151722 59 271 0.0 3.0 0.00 0.00 0.00 45 1014.2
20260502151635 59 246 0.0 3.0 0.00 0.00 0.00 47 1014.3
20260502151521 59 350 0.0 5.0 0.00 0.00 0.00 45 1014.3
20260502151512 58 34 0.0 5.0 0.00 0.00 0.00 45 1014.2
20260502151427 59 333 0.0 5.0 0.00 0.00 0.00 45 1014.3
20260502151313 58 281 0.0 5.0 0.00 0.00 0.00 49 1014.3
20260502151221 58 304 0.0 5.0 0.00 0.00 0.00 45 1014.3
20260502151153 58 308 0.0 5.0 0.00 0.00 0.00 44 1014.3
20260502151019 58 286 0.0 5.0 0.00 0.00 0.00 44 1014.3
20260502150924 58 281 0.0 5.0 0.00 0.00 0.00 45 1014.3
20260502150830 58 319 1.0 5.0 0.00 0.00 0.00 44 1014.3
20260502150722 58 296 1.0 5.0 0.00 0.00 0.00 42 1014.3
20260502150648 58 292 0.0 5.0 0.00 0.00 0.00 44 1014.3
20260502150517 58 40 0.0 5.0 0.00 0.00 0.00 44 1014.3
20260502150430 58 327 0.0 5.0 0.00 0.00 0.00 45 1014.3
20260502150309 58 35 0.0 5.0 0.00 0.00 0.00 44 1014.3
20260502150222 58 307 0.0 5.0 0.00 0.00 0.00 44 1014.3
20260502150128 58 300 0.0 8.0 0.00 0.00 0.00 42 1014.4
20260502150107 57 322 0.0 8.0 0.00 0.00 0.00 42 1014.3
20260502140110 55 286 0.0 0.0 0.00 0.00 0.00 47 1014.5
20260502130723 53 300 0.0 0.0 0.00 0.00 0.00 57 1014.2
20260502130609 53 296 0.0 0.0 0.00 0.00 0.00 58 1014.2
20260502130515 53 64 0.0 0.0 0.00 0.00 0.00 55 1014.2
20260502130428 53 321 0.0 0.0 0.00 0.00 0.00 54 1014.2
20260502130318 53 301 0.0 0.0 0.00 0.00 0.00 55 1014.2
20260502130224 53 5 0.0 0.0 0.00 0.00 0.00 56 1014.2
20260502130110 53 355 0.0 0.0 0.00 0.00 0.00 55 1014.2
20260502123734 52 350 0.0 7.0 0.00 0.00 0.00 59 1014.2
20260502123620 52 34 0.0 7.0 0.00 0.00 0.00 59 1014.2
20260502123552 52 31 0.0 7.0 0.00 0.00 0.00 58 1014.2
20260502123417 52 255 0.0 7.0 0.00 0.00 0.00 57 1014.2
20260502123348 52 42 0.0 7.0 0.00 0.00 0.00 58 1014.2
20260502123231 52 248 1.0 7.0 0.00 0.00 0.00 58 1014.2
20260502123137 52 50 1.0 7.0 0.00 0.00 0.00 56 1014.1
20260502123049 52 270 0.0 4.0 0.00 0.00 0.00 59 1014.1
20260502123017 51 280 0.0 4.0 0.00 0.00 0.00 55 1014.0
20260502122913 52 19 0.0 4.0 0.00 0.00 0.00 56 1014.1
20260502122819 51 5 0.0 4.0 0.00 0.00 0.00 55 1014.1
20260502122709 51 355 0.0 8.0 0.00 0.00 0.00 57 1014.1
20260502122615 51 42 0.0 8.0 0.00 0.00 0.00 57 1014.1
20260502122548 51 302 0.0 8.0 0.00 0.00 0.00 58 1014.1
20260502122413 51 334 0.0 8.0 0.00 0.00 0.00 57 1014.1
20260502122319 51 346 0.0 8.0 0.00 0.00 0.00 58 1014.1
20260502122252 51 260 0.0 8.0 0.00 0.00 0.00 58 1014.1
20260502122117 51 19 1.0 8.0 0.00 0.00 0.00 59 1014.1
20260502122027 51 5 1.0 8.0 0.00 0.00 0.00 57 1014.1
20260502121910 51 323 1.0 8.0 0.00 0.00 0.00 57 1014.0
20260502121816 52 53 0.0 4.0 0.00 0.00 0.00 56 1013.9
20260502121722 51 120 0.0 6.0 0.00 0.00 0.00 58 1013.9
20260502121635 51 72 0.0 6.0 0.00 0.00 0.00 57 1014.0
20260502121525 51 310 0.0 6.0 0.00 0.00 0.00 56 1013.9
20260502121505 51 309 0.0 6.0 0.00 0.00 0.00 56 1013.6
20260502121411 51 5 0.0 6.0 0.00 0.00 0.00 56 1013.8
20260502121317 51 47 1.0 6.0 0.00 0.00 0.00 58 1013.8
20260502121222 51 304 1.0 8.0 0.00 0.00 0.00 58 1013.8
20260502121135 51 317 1.0 8.0 0.00 0.00 0.00 58 1013.8
20260502121041 51 265 1.0 8.0 0.00 0.00 0.00 59 1013.8
20260502120910 51 46 0.0 8.0 0.00 0.00 0.00 56 1013.9
20260502120816 51 333 0.0 8.0 0.00 0.00 0.00 58 1013.9
20260502120722 51 336 0.0 8.0 0.00 0.00 0.00 57 1013.9
20260502120635 51 17 0.0 8.0 0.00 0.00 0.00 57 1013.9
20260502120521 51 5 1.0 8.0 0.00 0.00 0.00 57 1014.0
20260502120411 51 360 1.0 8.0 0.00 0.00 0.00 57 1013.9
20260502120316 51 37 0.0 0.0 0.00 0.00 0.00 58 1014.0
20260502120222 51 338 0.0 0.0 0.00 0.00 0.00 58 1014.0
20260502120135 51 263 0.0 0.0 0.00 0.00 0.00 58 1013.9
20260502115815 51 5 0.0 0.0 0.00 0.00 0.00 58 1014.0
20260502115749 51 20 0.0 0.0 0.00 0.00 0.00 57 1014.0
20260502115633 51 309 0.0 0.0 0.00 0.00 0.00 58 1014.1
20260502115545 51 25 0.0 0.0 0.00 0.00 0.00 58 1014.1
20260502115411 51 360 0.0 0.0 0.00 0.00 0.00 59 1014.1
20260502115316 51 35 0.0 0.0 0.00 0.00 0.00 59 1014.0
20260502115249 51 31 0.0 0.0 0.00 0.00 0.00 59 1014.0
20260502115134 51 44 0.0 0.0 0.00 0.00 0.00 58 1014.1
20260502115023 51 119 0.0 0.0 0.00 0.00 0.00 59 1014.1
20260502114909 51 314 0.0 0.0 0.00 0.00 0.00 59 1014.1
20260502114815 51 235 0.0 0.0 0.00 0.00 0.00 59 1014.0
20260502114728 51 321 0.0 0.0 0.00 0.00 0.00 60 1014.0
20260502114613 51 232 0.0 0.0 0.00 0.00 0.00 59 1013.9
20260502114537 51 31 0.0 0.0 0.00 0.00 0.00 59 1013.7
20260502114519 51 239 0.0 0.0 0.00 0.00 0.00 59 1013.9
20260502114409 51 298 0.0 0.0 0.00 0.00 0.00 59 1013.8
20260502114342 51 350 0.0 0.0 0.00 0.00 0.00 59 1013.8
20260502114227 51 295 0.0 0.0 0.00 0.00 0.00 61 1013.8
20260502114113 51 310 0.0 0.0 0.00 0.00 0.00 61 1013.9
20260502114019 51 323 0.0 0.0 0.00 0.00 0.00 61 1013.9
20260502113909 51 17 0.0 0.0 0.00 0.00 0.00 61 1014.0
20260502113842 51 296 0.0 0.0 0.00 0.00 0.00 60 1014.0
20260502113727 51 334 0.0 0.0 0.00 0.00 0.00 62 1014.0
20260502113613 51 283 0.0 0.0 0.00 0.00 0.00 60 1014.0
20260502113526 51 294 0.0 0.0 0.00 0.00 0.00 62 1014.0
20260502113432 51 285 0.0 0.0 0.00 0.00 0.00 63 1013.9
20260502113317 51 285 0.0 0.0 0.00 0.00 0.00 61 1013.9
20260502113234 51 296 0.0 0.0 0.00 0.00 0.00 60 1013.9
20260502113120 51 314 0.0 0.0 0.00 0.00 0.00 62 1013.8
20260502113026 51 250 0.0 0.0 0.00 0.00 0.00 62 1013.8
20260502113001 50 233 0.0 0.0 0.00 0.00 0.00 62 1013.7
20260502112912 51 292 0.0 0.0 0.00 0.00 0.00 64 1013.8
20260502112818 51 312 0.0 0.0 0.00 0.00 0.00 62 1013.8
20260502112728 51 319 0.0 0.0 0.00 0.00 0.00 64 1013.8
20260502112614 51 298 0.0 0.0 0.00 0.00 0.00 61 1013.8
20260502112527 51 298 0.0 0.0 0.00 0.00 0.00 61 1013.8
20260502112413 51 298 0.0 0.0 0.00 0.00 0.00 61 1013.7
20260502112320 51 298 0.0 0.0 0.00 0.00 0.00 61 1013.7
20260502112210 51 305 0.0 0.0 0.00 0.00 0.00 63 1013.7
20260502112144 51 309 0.0 0.0 0.00 0.00 0.00 61 1013.7
20260502112028 51 313 0.0 0.0 0.00 0.00 0.00 60 1013.8
20260502111914 51 313 0.0 0.0 0.00 0.00 0.00 60 1013.8
20260502111841 51 313 0.0 0.0 0.00 0.00 0.00 60 1013.8
20260502111733 51 78 0.0 0.0 0.00 0.00 0.00 61 1013.8
20260502111619 51 287 0.0 0.0 0.00 0.00 0.00 60 1013.7
20260502111606 50 338 0.0 0.0 0.00 0.00 0.00 60 1013.6
20260502111528 51 261 0.0 0.0 0.00 0.00 0.00 60 1013.7
20260502111415 51 306 0.0 0.0 0.00 0.00 0.00 61 1013.7
20260502111321 51 324 0.0 0.0 0.00 0.00 0.00 61 1013.7
20260502111227 51 313 0.0 0.0 0.00 0.00 0.00 61 1013.6
20260502111112 51 313 0.0 0.0 0.00 0.00 0.00 61 1013.6
20260502111045 51 313 0.0 0.0 0.00 0.00 0.00 61 1013.6
20260502110914 51 313 0.0 0.0 0.00 0.00 0.00 60 1013.5
20260502110821 51 284 0.0 0.0 0.00 0.00 0.00 59 1013.5
20260502110734 51 38 0.0 0.0 0.00 0.00 0.00 60 1013.5
20260502110641 51 337 0.0 0.0 0.00 0.00 0.00 59 1013.6
20260502110525 51 310 0.0 0.0 0.00 0.00 0.00 60 1013.6
20260502110415 51 350 0.0 0.0 0.00 0.00 0.00 58 1013.5
20260502110348 51 252 0.0 0.0 0.00 0.00 0.00 58 1013.5
20260502110213 51 306 0.0 0.0 0.00 0.00 0.00 57 1013.5
20260502110151 51 304 0.0 0.0 0.00 0.00 0.00 57 1013.4
20260502110140 51 308 0.0 0.0 0.00 0.00 0.00 59 1013.5
20260502110032 51 263 0.0 0.0 0.00 0.00 0.00 60 1013.6
20260502105916 51 300 0.0 0.0 0.00 0.00 0.00 58 1013.6
20260502105815 51 277 0.0 0.0 0.00 0.00 0.00 57 1013.7
20260502105732 51 229 0.0 0.0 0.00 0.00 0.00 58 1013.7
20260502105617 51 18 0.0 0.0 0.00 0.00 0.00 58 1013.7
20260502105523 51 318 0.0 0.0 0.00 0.00 0.00 58 1013.7
20260502105409 51 309 0.0 0.0 0.00 0.00 0.00 59 1013.6
20260502105315 51 331 0.0 0.0 0.00 0.00 0.00 58 1013.6
20260502105228 51 284 0.0 0.0 0.00 0.00 0.00 58 1013.6
20260502105118 51 306 0.0 0.0 0.00 0.00 0.00 59 1013.6
20260502105024 51 300 0.0 0.0 0.00 0.00 0.00 59 1013.6
20260502104910 51 238 0.0 0.0 0.00 0.00 0.00 59 1013.7
20260502104817 51 300 0.0 0.0 0.00 0.00 0.00 58 1013.8
20260502104729 51 277 0.0 0.0 0.00 0.00 0.00 58 1013.8
20260502104635 51 84 0.0 0.0 0.00 0.00 0.00 59 1013.8
20260502104547 51 275 0.0 0.0 0.00 0.00 0.00 59 1013.6
20260502104524 51 252 0.0 0.0 0.00 0.00 0.00 59 1013.8
20260502104410 51 265 0.0 0.0 0.00 0.00 0.00 58 1013.8
20260502104316 51 49 0.0 0.0 0.00 0.00 0.00 58 1013.7
20260502104229 51 294 0.0 0.0 0.00 0.00 0.00 60 1013.7
20260502104115 51 338 0.0 0.0 0.00 0.00 0.00 60 1013.7
20260502104025 51 338 0.0 0.0 0.00 0.00 0.00 59 1013.7
20260502103931 51 279 0.0 0.0 0.00 0.00 0.00 59 1013.6
20260502103823 51 24 0.0 0.0 0.00 0.00 0.00 58 1013.6
20260502103730 51 30 0.0 0.0 0.00 0.00 0.00 59 1013.7
20260502103615 51 329 0.0 0.0 0.00 0.00 0.00 60 1013.7
20260502103521 51 210 0.0 0.0 0.00 0.00 0.00 60 1013.7
20260502103411 51 292 0.0 0.0 0.00 0.00 0.00 59 1013.7
20260502103317 51 288 0.0 0.0 0.00 0.00 0.00 61 1013.7
20260502103230 51 254 0.0 0.0 0.00 0.00 0.00 61 1013.7
20260502103116 51 319 0.0 0.0 0.00 0.00 0.00 62 1013.6
20260502103104 50 319 0.0 0.0 0.00 0.00 0.00 62 1013.5
20260502103021 51 319 0.0 0.0 0.00 0.00 0.00 63 1013.6
20260502102955 51 319 0.0 0.0 0.00 0.00 0.00 62 1013.6
20260502102824 51 319 0.0 0.0 0.00 0.00 0.00 63 1013.6
20260502102729 51 297 0.0 0.0 0.00 0.00 0.00 62 1013.6
20260502102615 51 259 0.0 0.0 0.00 0.00 0.00 62 1013.5
20260502102521 51 309 0.0 0.0 0.00 0.00 0.00 63 1013.5
20260502102433 51 296 0.0 0.0 0.00 0.00 0.00 62 1013.5
20260502102320 51 321 0.0 0.0 0.00 0.00 0.00 62 1013.5
20260502102209 51 238 0.0 0.0 0.00 0.00 0.00 63 1013.5
20260502102116 51 296 0.0 0.0 0.00 0.00 0.00 62 1013.5
20260502102049 51 282 0.0 0.0 0.00 0.00 0.00 63 1013.5
20260502101913 51 247 0.0 0.0 0.00 0.00 0.00 62 1013.3
20260502101819 51 236 0.0 0.0 0.00 0.00 0.00 63 1013.4
20260502101745 51 319 0.0 0.0 0.00 0.00 0.00 63 1013.4
20260502101626 51 277 0.0 0.0 0.00 0.00 0.00 63 1013.2
20260502101614 51 277 0.0 0.0 0.00 0.00 0.00 63 1013.3
20260502101547 51 315 0.0 0.0 0.00 0.00 0.00 63 1013.3
20260502101412 51 331 0.0 0.0 0.00 0.00 0.00 63 1013.3
20260502101318 51 288 0.0 0.0 0.00 0.00 0.00 64 1013.3
20260502101231 51 290 0.0 0.0 0.00 0.00 0.00 63 1013.3
20260502101117 51 301 0.0 0.0 0.00 0.00 0.00 64 1013.3
20260502101027 51 40 0.0 0.0 0.00 0.00 0.00 63 1013.3
20260502100933 51 286 0.0 0.0 0.00 0.00 0.00 63 1013.3
20260502100825 51 298 0.0 0.0 0.00 0.00 0.00 63 1013.3
20260502100731 51 355 0.0 0.0 0.00 0.00 0.00 64 1013.3
20260502100616 51 298 0.0 0.0 0.00 0.00 0.00 65 1013.4
20260502100549 51 300 0.0 0.0 0.00 0.00 0.00 64 1013.4
20260502100417 51 360 0.0 0.0 0.00 0.00 0.00 64 1013.4
20260502100322 51 360 0.0 0.0 0.00 0.00 0.00 66 1013.4
20260502100228 51 296 0.0 0.0 0.00 0.00 0.00 65 1013.4
20260502100114 51 300 0.0 0.0 0.00 0.00 0.00 64 1013.3
20260502091527 50 241 0.0 0.0 0.00 0.00 0.00 76 1013.1
20260502091413 50 217 0.0 0.0 0.00 0.00 0.00 74 1013.1
20260502091319 50 128 0.0 0.0 0.00 0.00 0.00 75 1013.1
20260502091225 50 128 0.0 0.0 0.00 0.00 0.00 76 1013.1
20260502091115 50 198 0.0 0.0 0.00 0.00 0.00 77 1013.1
20260502091028 50 198 0.0 0.0 0.00 0.00 0.00 77 1013.1
20260502090934 50 198 0.0 0.0 0.00 0.00 0.00 76 1013.0
20260502090846 50 198 0.0 0.0 0.00 0.00 0.00 75 1013.0
20260502090711 50 198 0.0 0.0 0.00 0.00 0.00 74 1012.9
20260502090617 50 198 0.0 0.0 0.00 0.00 0.00 77 1013.0
20260502090550 50 198 0.0 0.0 0.00 0.00 0.00 75 1013.0
20260502090439 50 198 0.0 0.0 0.00 0.00 0.00 76 1013.0
20260502090324 50 144 0.0 0.0 0.00 0.00 0.00 77 1013.0
20260502090237 50 210 0.0 0.0 0.00 0.00 0.00 77 1012.9
20260502090122 50 210 0.0 0.0 0.00 0.00 0.00 78 1012.9
20260502071533 51 175 0.0 0.0 0.00 0.00 0.00 79 1012.3
20260502071521 50 175 0.0 0.0 0.00 0.00 0.00 79 1012.2
20260502071423 51 175 0.0 0.0 0.00 0.00 0.00 78 1012.3
20260502071310 51 175 0.0 0.0 0.00 0.00 0.00 79 1012.4
20260502071216 51 175 0.0 0.0 0.00 0.00 0.00 79 1012.4
20260502071121 51 175 0.0 0.0 0.00 0.00 0.00 79 1012.4
20260502071027 51 175 0.0 0.0 0.00 0.00 0.00 80 1012.3
20260502070917 52 175 0.0 0.0 0.00 0.00 0.00 78 1012.3
20260502070830 52 175 0.0 0.0 0.00 0.00 0.00 74 1012.3
20260502070716 52 175 0.0 0.0 0.00 0.00 0.00 71 1012.3
20260502070642 52 175 0.0 0.0 0.00 0.00 0.00 72 1012.3
20260502070534 52 175 0.0 0.0 0.00 0.00 0.00 73 1012.3
20260502070413 52 175 0.0 0.0 0.00 0.00 0.00 73 1012.4
20260502070330 52 175 0.0 0.0 0.00 0.00 0.00 75 1012.4
20260502070216 52 175 0.0 0.0 0.00 0.00 0.00 73 1012.4
20260502070122 52 175 0.0 0.0 0.00 0.00 0.00 73 1012.4
20260502070043 52 175 0.0 0.0 0.00 0.00 0.00 73 1012.3
20260502070027 52 175 0.0 0.0 0.00 0.00 0.00 73 1012.4
20260502065913 52 175 0.0 0.0 0.00 0.00 0.00 74 1012.4
20260502065846 52 175 0.0 0.0 0.00 0.00 0.00 73 1012.4
20260502065715 52 175 0.0 0.0 0.00 0.00 0.00 71 1012.4
20260502065648 52 175 0.0 0.0 0.00 0.00 0.00 72 1012.4
20260502065513 52 175 0.0 0.0 0.00 0.00 0.00 71 1012.4
20260502065419 52 175 0.0 0.0 0.00 0.00 0.00 72 1012.4
20260502065325 52 175 0.0 0.0 0.00 0.00 0.00 73 1012.3
20260502065231 52 175 0.0 0.0 0.00 0.00 0.00 73 1012.3
20260502065127 52 175 0.0 0.0 0.00 0.00 0.00 73 1012.3
20260502065013 53 175 0.0 0.0 0.00 0.00 0.00 74 1012.3
20260502064919 53 175 0.0 0.0 0.00 0.00 0.00 74 1012.3
20260502064825 53 175 0.0 0.0 0.00 0.00 0.00 71 1012.3
20260502064711 53 175 0.0 0.0 0.00 0.00 0.00 72 1012.4
20260502064644 53 175 0.0 0.0 0.00 0.00 0.00 71 1012.4
20260502064559 52 175 0.0 0.0 0.00 0.00 0.00 71 1012.3
20260502064513 53 175 0.0 0.0 0.00 0.00 0.00 73 1012.4
20260502064419 53 175 0.0 0.0 0.00 0.00 0.00 76 1012.3
20260502064352 53 175 0.0 0.0 0.00 0.00 0.00 76 1012.3
20260502064217 53 175 0.0 0.0 0.00 0.00 0.00 72 1012.3
20260502064123 52 175 0.0 0.0 0.00 0.00 0.00 69 1012.3
20260502064028 52 175 0.0 0.0 0.00 0.00 0.00 71 1012.3
20260502063919 52 175 0.0 0.0 0.00 0.00 0.00 75 1012.3
20260502063832 52 175 0.0 0.0 0.00 0.00 0.00 74 1012.3
20260502063738 52 175 0.0 0.0 0.00 0.00 0.00 76 1012.3
20260502063623 52 175 0.0 0.0 0.00 0.00 0.00 76 1012.3
20260502063529 52 175 0.0 0.0 0.00 0.00 0.00 77 1012.2
20260502063415 52 175 0.0 0.0 0.00 0.00 0.00 76 1012.2
20260502063332 52 175 0.0 0.0 0.00 0.00 0.00 77 1012.2
20260502063217 52 186 0.0 0.0 0.00 0.00 0.00 78 1012.3
20260502063124 52 251 0.0 0.0 0.00 0.00 0.00 76 1012.3
20260502063109 52 251 0.0 0.0 0.00 0.00 0.00 76 1012.2
20260502063009 52 251 0.0 0.0 0.00 0.00 0.00 77 1012.3
20260502062916 52 267 0.0 0.0 0.00 0.00 0.00 77 1012.2
20260502062833 52 267 0.0 0.0 0.00 0.00 0.00 77 1012.2
20260502062720 52 267 0.0 0.0 0.00 0.00 0.00 78 1012.2
20260502062626 52 267 0.0 0.0 0.00 0.00 0.00 80 1012.3
20260502062511 52 192 0.0 0.0 0.00 0.00 0.00 81 1012.3
20260502062417 52 236 0.0 0.0 0.00 0.00 0.00 82 1012.2
20260502062351 52 227 0.0 0.0 0.00 0.00 0.00 81 1012.2
20260502062219 52 227 0.0 0.0 0.00 0.00 0.00 82 1012.2
20260502062125 52 227 0.0 0.0 0.00 0.00 0.00 81 1012.3
20260502062011 52 227 0.0 0.0 0.00 0.00 0.00 80 1012.2
20260502061918 52 267 0.0 0.0 0.00 0.00 0.00 80 1012.2
20260502061823 52 195 0.0 0.0 0.00 0.00 0.00 80 1012.2
20260502061713 52 221 0.0 0.0 0.00 0.00 0.00 78 1012.3
20260502061627 52 257 0.0 0.0 0.00 0.00 0.00 83 1012.3
20260502061605 52 279 0.0 0.0 0.00 0.00 0.00 83 1012.2
20260502061512 52 279 0.0 0.0 0.00 0.00 0.00 82 1012.3
20260502061418 52 279 0.0 0.0 0.00 0.00 0.00 81 1012.3
20260502061324 53 279 0.0 0.0 0.00 0.00 0.00 79 1012.2
20260502061250 53 219 0.0 0.0 0.00 0.00 0.00 80 1012.2
20260502061132 53 219 0.0 0.0 0.00 0.00 0.00 81 1012.3
20260502061048 53 219 0.0 0.0 0.00 0.00 0.00 81 1012.3
20260502060913 53 219 0.0 0.0 0.00 0.00 0.00 81 1012.3
20260502060819 53 219 0.0 0.0 0.00 0.00 0.00 81 1012.3
20260502060752 53 219 0.0 0.0 0.00 0.00 0.00 81 1012.3
20260502060617 53 219 0.0 0.0 0.00 0.00 0.00 80 1012.4
20260502060523 53 191 0.0 0.0 0.00 0.00 0.00 78 1012.4
20260502060413 53 191 0.0 0.0 0.00 0.00 0.00 77 1012.3
20260502060319 53 191 0.0 0.0 0.00 0.00 0.00 77 1012.3
20260502060232 53 191 0.0 0.0 0.00 0.00 0.00 77 1012.3
20260502060119 53 191 0.0 0.0 0.00 0.00 0.00 76 1012.3
20260502060110 53 191 0.0 0.0 0.00 0.00 0.00 76 1012.2
20260502060025 53 191 0.0 0.0 0.00 0.00 0.00 76 1012.3
20260502055915 53 191 0.0 0.0 0.00 0.00 0.00 77 1012.3
20260502055849 54 191 0.0 0.0 0.00 0.00 0.00 78 1012.3
20260502055733 54 191 0.0 0.0 0.00 0.00 0.00 79 1012.4
20260502055619 54 191 0.0 0.0 0.00 0.00 0.00 78 1012.3
20260502055525 54 191 0.0 0.0 0.00 0.00 0.00 79 1012.3
20260502055431 54 191 0.0 0.0 0.00 0.00 0.00 77 1012.3
20260502055323 54 191 0.0 0.0 0.00 0.00 0.00 77 1012.3
20260502055213 54 191 0.0 0.0 0.00 0.00 0.00 79 1012.4
20260502055119 54 191 0.0 0.0 0.00 0.00 0.00 79 1012.4
20260502055025 54 191 0.0 0.0 0.00 0.00 0.00 77 1012.4
20260502054911 54 191 0.0 0.0 0.00 0.00 0.00 75 1012.5
20260502054817 54 191 0.0 0.0 0.00 0.00 0.00 76 1012.5
20260502054733 54 191 0.0 0.0 0.00 0.00 0.00 75 1012.5
20260502054620 54 191 0.0 0.0 0.00 0.00 0.00 75 1012.6
20260502054609 54 191 0.0 0.0 0.00 0.00 0.00 75 1012.6
20260502054525 54 175 0.0 0.0 0.00 0.00 0.00 75 1012.7
20260502054411 54 155 0.0 0.0 0.00 0.00 0.00 76 1012.6
20260502054318 54 155 0.0 0.0 0.00 0.00 0.00 75 1012.7
20260502054223 54 155 0.0 0.0 0.00 0.00 0.00 73 1012.7
20260502054122 54 155 0.0 0.0 0.00 0.00 0.00 74 1012.7
20260502054026 54 155 0.0 0.0 0.00 0.00 0.00 74 1012.7
20260502053912 54 183 0.0 0.0 0.00 0.00 0.00 74 1012.7
20260502053839 54 214 0.0 0.0 0.00 0.00 0.00 75 1012.7
20260502053731 54 214 0.0 0.0 0.00 0.00 0.00 76 1012.7
20260502053615 54 214 0.0 0.0 0.00 0.00 0.00 76 1012.7
20260502053525 54 214 0.0 0.0 0.00 0.00 0.00 77 1012.7
20260502053411 54 214 0.0 0.0 0.00 0.00 0.00 79 1012.7
20260502053324 54 214 0.0 0.0 0.00 0.00 0.00 79 1012.7
20260502053231 54 214 0.0 0.0 0.00 0.00 0.00 78 1012.7
20260502053116 54 214 0.0 0.0 0.00 0.00 0.00 79 1012.6
20260502053047 53 214 0.0 0.0 0.00 0.00 0.00 79 1012.6
20260502053022 54 214 0.0 0.0 0.00 0.00 0.00 79 1012.6
20260502052912 54 214 0.0 0.0 0.00 0.00 0.00 78 1012.6
20260502052825 54 214 0.0 0.0 0.00 0.00 0.00 78 1012.6
20260502052711 54 214 0.0 0.0 0.00 0.00 0.00 78 1012.6
20260502052637 54 214 0.0 0.0 0.00 0.00 0.00 77 1012.6
20260502052529 54 214 0.0 0.0 0.00 0.00 0.00 79 1012.6
20260502052419 54 313 0.0 0.0 0.00 0.00 0.00 80 1012.6
20260502052325 54 313 0.0 0.0 0.00 0.00 0.00 80 1012.6
20260502052211 54 313 0.0 0.0 0.00 0.00 0.00 80 1012.6
20260502052138 54 313 0.0 0.0 0.00 0.00 0.00 82 1012.6
20260502052030 54 313 0.0 0.0 0.00 0.00 0.00 82 1012.6
20260502051916 54 313 0.0 0.0 0.00 0.00 0.00 81 1012.6
20260502051826 54 313 0.0 0.0 0.00 0.00 0.00 80 1012.6
20260502051732 54 313 0.0 0.0 0.00 0.00 0.00 79 1012.6
20260502051624 54 299 0.0 0.0 0.00 0.00 0.00 79 1012.6
20260502051614 54 228 0.0 0.0 0.00 0.00 0.00 82 1012.5
20260502051530 54 150 0.0 0.0 0.00 0.00 0.00 82 1012.6
20260502051415 54 123 0.0 0.0 0.00 0.00 0.00 82 1012.6
20260502051321 54 107 0.0 0.0 0.00 0.00 0.00 83 1012.6
20260502051211 54 107 0.0 0.0 0.00 0.00 0.00 82 1012.6
20260502051144 54 107 0.0 0.0 0.00 0.00 0.00 82 1012.6
20260502051009 54 110 0.0 0.0 0.00 0.00 0.00 79 1012.6
20260502050915 54 110 0.0 0.0 0.00 0.00 0.00 78 1012.6
20260502050828 54 110 0.0 0.0 0.00 0.00 0.00 78 1012.6
20260502050714 53 102 0.0 0.0 0.00 0.00 0.00 77 1012.7
20260502050624 53 96 0.0 0.0 0.00 0.00 0.00 76 1012.7
20260502050510 53 128 0.0 0.0 0.00 0.00 0.00 80 1012.7
20260502050416 52 143 0.0 0.0 0.00 0.00 0.00 82 1012.6
20260502050349 52 146 0.0 0.0 0.00 0.00 0.00 83 1012.6
20260502050214 52 177 0.0 0.0 0.00 0.00 0.00 84 1012.7
20260502050120 52 178 0.0 0.0 0.00 0.00 0.00 85 1012.7
20260502050044 51 177 0.0 0.0 0.00 0.00 0.00 85 1012.6
20260502050025 52 177 0.0 0.0 0.00 0.00 0.00 85 1012.6
20260502045911 52 177 0.0 0.0 0.00 0.00 0.00 85 1012.6
20260502045824 52 177 0.0 0.0 0.00 0.00 0.00 86 1012.6
20260502045710 52 181 0.0 0.0 0.00 0.00 0.00 87 1012.6
20260502045616 52 313 0.0 0.0 0.00 0.00 0.00 87 1012.6
20260502045522 52 313 0.0 0.0 0.00 0.00 0.00 88 1012.6
20260502045432 52 313 0.0 0.0 0.00 0.00 0.00 88 1012.6
20260502045323 52 313 0.0 0.0 0.00 0.00 0.00 88 1012.6
20260502045210 52 313 0.0 0.0 0.00 0.00 0.00 88 1012.6
20260502045116 52 313 0.0 0.0 0.00 0.00 0.00 88 1012.6
20260502045021 52 313 0.0 0.0 0.00 0.00 0.00 88 1012.6
20260502044935 52 313 0.0 0.0 0.00 0.00 0.00 88 1012.6
20260502044823 51 313 0.0 0.0 0.00 0.00 0.00 88 1012.6
20260502044710 51 313 0.0 0.0 0.00 0.00 0.00 88 1012.5
20260502044643 52 313 0.0 0.0 0.00 0.00 0.00 88 1012.5
20260502044527 51 313 0.0 0.0 0.00 0.00 0.00 88 1012.5
20260502044504 51 316 0.0 0.0 0.00 0.00 0.00 88 1012.5
20260502044414 51 298 0.0 0.0 0.00 0.00 0.00 88 1012.6
20260502044319 51 298 0.0 0.0 0.00 0.00 0.00 88 1012.6
20260502044210 51 298 0.0 0.0 0.00 0.00 0.00 88 1012.5
20260502044116 51 298 0.0 0.0 0.00 0.00 0.00 88 1012.5
20260502044028 51 298 0.0 0.0 0.00 0.00 0.00 88 1012.5
20260502043914 51 298 0.0 0.0 0.00 0.00 0.00 88 1012.5
20260502043820 51 298 0.0 0.0 0.00 0.00 0.00 88 1012.5
20260502043710 51 298 0.0 0.0 0.00 0.00 0.00 88 1012.5
20260502043616 51 298 0.0 0.0 0.00 0.00 0.00 88 1012.5
20260502043522 51 298 0.0 0.0 0.00 0.00 0.00 88 1012.5
20260502043409 51 298 0.0 0.0 0.00 0.00 0.00 88 1012.5
20260502043322 51 298 0.0 0.0 0.00 0.00 0.00 88 1012.5
20260502043212 51 298 0.0 0.0 0.00 0.00 0.00 88 1012.5
20260502043118 51 298 0.0 0.0 0.00 0.00 0.00 88 1012.5
20260502043048 51 298 0.0 0.0 0.00 0.00 0.00 88 1012.4
20260502043024 51 298 0.0 0.0 0.00 0.00 0.00 88 1012.5
20260502042911 51 298 0.0 0.0 0.00 0.00 0.00 87 1012.5
20260502042817 51 298 0.0 0.0 0.00 0.00 0.00 88 1012.5
20260502042730 51 298 0.0 0.0 0.00 0.00 0.00 88 1012.5
20260502042619 51 298 0.0 0.0 0.00 0.00 0.00 88 1012.5
20260502042525 51 298 0.0 0.0 0.00 0.00 0.00 87 1012.4
20260502042411 51 298 0.0 0.0 0.00 0.00 0.00 88 1012.4
20260502042324 51 298 0.0 0.0 0.00 0.00 0.00 88 1012.4
20260502042210 51 298 0.0 0.0 0.00 0.00 0.00 87 1012.4
20260502042116 51 298 0.0 0.0 0.00 0.00 0.00 87 1012.4
20260502042026 51 298 0.0 0.0 0.00 0.00 0.00 87 1012.4
20260502041912 51 298 0.0 0.0 0.00 0.00 0.00 88 1012.3
20260502041818 51 298 0.0 0.0 0.00 0.00 0.00 88 1012.3
20260502041731 51 298 0.0 0.0 0.00 0.00 0.00 88 1012.3
20260502041617 51 298 0.0 0.0 0.00 0.00 0.00 87 1012.3
20260502041604 51 298 0.0 0.0 0.00 0.00 0.00 87 1012.3
20260502041527 51 298 0.0 0.0 0.00 0.00 0.00 87 1012.3
20260502041413 51 298 0.0 0.0 0.00 0.00 0.00 88 1012.3
20260502041319 51 298 0.0 0.0 0.00 0.00 0.00 88 1012.3
20260502041252 51 298 0.0 0.0 0.00 0.00 0.00 88 1012.3
20260502041116 51 298 0.0 0.0 0.00 0.00 0.00 88 1012.3
20260502041022 51 298 0.0 0.0 0.00 0.00 0.00 88 1012.3
20260502040911 51 298 0.0 0.0 0.00 0.00 0.00 88 1012.3
20260502040844 51 298 0.0 0.0 0.00 0.00 0.00 88 1012.3
20260502040749 51 298 0.0 0.0 0.00 0.00 0.00 88 1012.3
20260502040614 51 298 0.0 0.0 0.00 0.00 0.00 88 1012.2
20260502040527 51 298 0.0 0.0 0.00 0.00 0.00 88 1012.2
20260502040413 51 298 0.0 0.0 0.00 0.00 0.00 88 1012.2
20260502040323 51 298 0.0 0.0 0.00 0.00 0.00 88 1012.2
20260502040209 51 298 0.0 0.0 0.00 0.00 0.00 87 1012.1
20260502040115 51 298 0.0 0.0 0.00 0.00 0.00 87 1012.1
20260502040035 51 298 0.0 0.0 0.00 0.00 0.00 87 1012.1
20260502040021 51 298 0.0 0.0 0.00 0.00 0.00 87 1012.1
20260502035934 51 298 0.0 0.0 0.00 0.00 0.00 87 1012.2
20260502035820 51 298 0.0 0.0 0.00 0.00 0.00 87 1012.2
20260502035710 51 298 0.0 0.0 0.00 0.00 0.00 87 1012.2
20260502035616 51 298 0.0 0.0 0.00 0.00 0.00 87 1012.2
20260502035521 51 298 0.0 0.0 0.00 0.00 0.00 87 1012.2
20260502035436 51 298 0.0 0.0 0.00 0.00 0.00 87 1012.2
20260502035314 51 298 0.0 0.0 0.00 0.00 0.00 87 1012.2
20260502035230 51 298 0.0 0.0 0.00 0.00 0.00 86 1012.2
20260502035112 51 298 0.0 0.0 0.00 0.00 0.00 86 1012.2
20260502035039 52 298 0.0 0.0 0.00 0.00 0.00 86 1012.2
20260502034930 52 298 0.0 0.0 0.00 0.00 0.00 86 1012.2
20260502034813 52 298 0.0 0.0 0.00 0.00 0.00 86 1012.1
20260502034719 52 298 0.0 0.0 0.00 0.00 0.00 86 1012.1
20260502034610 52 298 0.0 0.0 0.00 0.00 0.00 86 1012.1
20260502034542 51 298 0.0 0.0 0.00 0.00 0.00 86 1012.1
20260502034426 52 298 0.0 0.0 0.00 0.00 0.00 86 1012.1
20260502034312 52 298 0.0 0.0 0.00 0.00 0.00 86 1012.0
20260502034225 52 298 0.0 0.0 0.00 0.00 0.00 86 1012.0
20260502034151 52 298 0.0 0.0 0.00 0.00 0.00 86 1012.1
20260502034018 52 298 0.0 0.0 0.00 0.00 0.00 86 1012.0
20260502033931 52 298 0.0 0.0 0.00 0.00 0.00 86 1012.0
20260502033831 52 298 0.0 0.0 0.00 0.00 0.00 86 1011.9
20260502033715 52 298 0.0 0.0 0.00 0.00 0.00 86 1011.9
20260502033648 52 298 0.0 0.0 0.00 0.00 0.00 86 1011.9
20260502033514 52 298 0.0 0.0 0.00 0.00 0.00 86 1012.0
20260502033423 52 298 0.0 0.0 0.00 0.00 0.00 86 1012.0
20260502033309 52 298 0.0 0.0 0.00 0.00 0.00 86 1012.0
20260502033215 52 298 0.0 0.0 0.00 0.00 0.00 86 1011.9
20260502033128 52 298 0.0 0.0 0.00 0.00 0.00 86 1011.9
20260502033116 51 298 0.0 0.0 0.00 0.00 0.00 86 1011.9
20260502033034 52 298 0.0 0.0 0.00 0.00 0.00 86 1012.0
20260502032918 52 298 0.0 0.0 0.00 0.00 0.00 86 1012.0
20260502032835 52 298 0.0 0.0 0.00 0.00 0.00 86 1012.0
20260502032741 52 327 0.0 0.0 0.00 0.00 0.00 86 1012.0
20260502032626 52 327 0.0 0.0 0.00 0.00 0.00 86 1012.0
20260502032512 52 313 0.0 0.0 0.00 0.00 0.00 85 1011.8
20260502032414 52 211 0.0 0.0 0.00 0.00 0.00 85 1011.8
20260502032327 52 144 0.0 0.0 0.00 0.00 0.00 85 1011.8
20260502032227 52 144 0.0 0.0 0.00 0.00 0.00 85 1011.7
20260502032113 52 144 0.0 0.0 0.00 0.00 0.00 85 1011.7
20260502032019 52 144 0.0 0.0 0.00 0.00 0.00 85 1011.7
20260502031932 52 144 0.0 0.0 0.00 0.00 0.00 86 1011.7
20260502031811 52 144 0.0 0.0 0.00 0.00 0.00 86 1011.8
20260502031709 52 144 0.0 0.0 0.00 0.00 0.00 86 1011.8
20260502031614 52 144 0.0 0.0 0.00 0.00 0.00 86 1011.8
20260502031551 51 144 0.0 0.0 0.00 0.00 0.00 86 1011.7
20260502031520 52 144 0.0 0.0 0.00 0.00 0.00 86 1011.8
20260502031426 52 144 0.0 0.0 0.00 0.00 0.00 86 1011.8
20260502031312 52 144 0.0 0.0 0.00 0.00 0.00 85 1011.8
20260502031246 52 144 0.0 0.0 0.00 0.00 0.00 85 1011.8
20260502031115 52 144 0.0 0.0 0.00 0.00 0.00 85 1011.8
20260502031045 52 144 0.0 0.0 0.00 0.00 0.00 85 1011.8
20260502030942 52 144 0.0 0.0 0.00 0.00 0.00 85 1011.7
20260502030834 52 144 0.0 0.0 0.00 0.00 0.00 85 1011.7
20260502030721 52 144 0.0 0.0 0.00 0.00 0.00 86 1011.6
20260502030626 52 144 0.0 0.0 0.00 0.00 0.00 86 1011.6
20260502030528 52 144 0.0 0.0 0.00 0.00 0.00 85 1011.6
20260502030432 52 144 0.0 0.0 0.00 0.00 0.00 85 1011.6
20260502030336 52 144 0.0 0.0 0.00 0.00 0.00 84 1011.5
20260502030217 52 144 0.0 0.0 0.00 0.00 0.00 84 1011.6
20260502030123 52 144 0.0 0.0 0.00 0.00 0.00 85 1011.6
20260502030035 52 144 0.0 0.0 0.00 0.00 0.00 85 1011.6
20260502030024 51 144 0.0 0.0 0.00 0.00 0.00 85 1011.6
20260502025921 51 144 0.0 0.0 0.00 0.00 0.00 84 1011.7
20260502025838 51 144 0.0 0.0 0.00 0.00 0.00 84 1011.7
20260502025733 51 144 0.0 0.0 0.00 0.00 0.00 84 1011.7
20260502025612 51 144 0.0 0.0 0.00 0.00 0.00 84 1011.7
20260502025524 51 144 0.0 0.0 0.00 0.00 0.00 84 1011.7
20260502025411 51 144 0.0 0.0 0.00 0.00 0.00 84 1011.6
20260502025317 51 144 0.0 0.0 0.00 0.00 0.00 84 1011.6
20260502025226 51 144 0.0 0.0 0.00 0.00 0.00 84 1011.6
20260502025112 51 144 0.0 0.0 0.00 0.00 0.00 84 1011.6
20260502025022 51 144 0.0 0.0 0.00 0.00 0.00 84 1011.6
20260502024938 51 144 0.0 0.0 0.00 0.00 0.00 84 1011.5
20260502024849 51 144 0.0 0.0 0.00 0.00 0.00 84 1011.5
20260502024734 51 144 0.0 0.0 0.00 0.00 0.00 84 1011.4
20260502024626 52 144 0.0 0.0 0.00 0.00 0.00 84 1011.4
20260502024528 51 144 0.0 0.0 0.00 0.00 0.00 84 1011.2
20260502024516 52 144 0.0 0.0 0.00 0.00 0.00 84 1011.3
20260502024429 52 144 0.0 0.0 0.00 0.00 0.00 84 1011.3
20260502024310 52 144 0.0 0.0 0.00 0.00 0.00 84 1011.3
20260502024216 51 144 0.0 0.0 0.00 0.00 0.00 84 1011.3
20260502024122 52 144 0.0 0.0 0.00 0.00 0.00 84 1011.3
20260502024012 52 144 0.0 0.0 0.00 0.00 0.00 85 1011.3
20260502023925 52 144 0.0 0.0 0.00 0.00 0.00 85 1011.3
20260502023831 51 144 0.0 0.0 0.00 0.00 0.00 85 1011.2
20260502023716 51 144 0.0 0.0 0.00 0.00 0.00 85 1011.1
20260502023618 51 144 0.0 0.0 0.00 0.00 0.00 85 1011.1
20260502023525 52 144 0.0 0.0 0.00 0.00 0.00 84 1011.1
20260502023431 51 144 0.0 0.0 0.00 0.00 0.00 84 1011.0
20260502023320 51 144 0.0 0.0 0.00 0.00 0.00 83 1011.0
20260502023233 51 144 0.0 0.0 0.00 0.00 0.00 82 1011.0
20260502023139 52 144 0.0 0.0 0.00 0.00 0.00 82 1011.0
20260502023040 51 144 0.0 0.0 0.00 0.00 0.00 82 1010.9
20260502023014 52 144 0.0 0.0 0.00 0.00 0.00 82 1011.0
20260502022947 52 144 0.0 0.0 0.00 0.00 0.00 82 1011.0
20260502022832 52 144 0.0 0.0 0.00 0.00 0.00 82 1011.0
20260502022713 52 144 0.0 0.0 0.00 0.00 0.00 82 1011.0
20260502022630 52 144 0.0 0.0 0.00 0.00 0.00 82 1011.0
20260502022516 52 144 0.0 0.0 0.00 0.00 0.00 82 1011.0
20260502022435 52 144 0.0 0.0 0.00 0.00 0.00 82 1011.0
20260502022344 52 144 0.0 0.0 0.00 0.00 0.00 81 1011.0
20260502022229 52 144 0.0 0.0 0.00 0.00 0.00 81 1011.0
20260502022109 52 144 0.0 0.0 0.00 0.00 0.00 81 1011.0
20260502022024 52 144 0.0 0.0 0.00 0.00 0.00 81 1011.0
20260502021923 52 144 0.0 0.0 0.00 0.00 0.00 81 1011.0
20260502021829 52 144 0.0 0.0 0.00 0.00 0.00 81 1010.9
20260502021714 52 144 0.0 0.0 0.00 0.00 0.00 81 1010.9
20260502021621 52 144 0.0 0.0 0.00 0.00 0.00 81 1010.9
20260502021533 52 144 0.0 0.0 0.00 0.00 0.00 81 1010.9
20260502021512 52 144 0.0 0.0 0.00 0.00 0.00 81 1010.8
20260502021424 52 144 0.0 0.0 0.00 0.00 0.00 81 1010.9
20260502021327 52 144 0.0 0.0 0.00 0.00 0.00 82 1010.9
20260502021213 52 144 0.0 0.0 0.00 0.00 0.00 82 1010.9
20260502021118 52 144 0.0 0.0 0.00 0.00 0.00 82 1010.9
20260502021031 52 144 0.0 0.0 0.00 0.00 0.00 82 1010.9
20260502020922 52 144 0.0 0.0 0.00 0.00 0.00 82 1010.9
20260502020824 53 144 0.0 0.0 0.00 0.00 0.00 82 1010.9
20260502020710 53 144 0.0 0.0 0.00 0.00 0.00 83 1010.8
20260502020616 53 144 0.0 0.0 0.00 0.00 0.00 82 1010.8
20260502020547 53 144 0.0 0.0 0.00 0.00 0.00 82 1010.8
20260502020432 53 144 0.0 0.0 0.00 0.00 0.00 83 1010.8
20260502020315 53 144 0.0 0.0 0.00 0.00 0.00 83 1010.8
20260502020221 53 144 0.0 0.0 0.00 0.00 0.00 83 1010.9
20260502020131 53 144 0.0 0.0 0.00 0.00 0.00 83 1010.9
20260502020017 53 144 0.0 0.0 0.00 0.00 0.00 83 1010.8
20260502020009 52 144 0.0 0.0 0.00 0.00 0.00 83 1010.7
20260502015921 53 144 0.0 0.0 0.00 0.00 0.00 83 1010.9
20260502015826 53 144 0.0 0.0 0.00 0.00 0.00 83 1010.9
20260502015716 53 144 0.0 0.0 0.00 0.00 0.00 83 1010.9
20260502015649 53 144 0.0 0.0 0.00 0.00 0.00 83 1010.9
20260502015511 53 144 0.0 0.0 0.00 0.00 0.00 83 1010.9
20260502015415 53 144 0.0 0.0 0.00 0.00 0.00 83 1010.9
20260502015321 53 144 0.0 0.0 0.00 0.00 0.00 83 1010.9
20260502015234 53 144 0.0 0.0 0.00 0.00 0.00 83 1010.9
20260502015124 53 144 0.0 0.0 0.00 0.00 0.00 83 1010.9
20260502015029 53 144 0.0 0.0 0.00 0.00 0.00 83 1010.9
20260502014915 53 144 0.0 0.0 0.00 0.00 0.00 83 1010.9
20260502014842 53 144 0.0 0.0 0.00 0.00 0.00 83 1010.9
20260502014733 53 144 0.0 0.0 0.00 0.00 0.00 83 1010.9
20260502014619 53 144 0.0 0.0 0.00 0.00 0.00 83 1010.8
20260502014604 52 144 0.0 0.0 0.00 0.00 0.00 83 1010.7
20260502014529 53 144 0.0 0.0 0.00 0.00 0.00 83 1010.8
20260502014432 53 144 0.0 0.0 0.00 0.00 0.00 82 1010.9
20260502014324 53 144 0.0 0.0 0.00 0.00 0.00 82 1010.9
20260502014239 53 144 0.0 0.0 0.00 0.00 0.00 82 1010.9
20260502014148 53 144 0.0 0.0 0.00 0.00 0.00 83 1010.9
20260502014018 53 144 0.0 0.0 0.00 0.00 0.00 82 1010.9
20260502013924 53 144 0.0 0.0 0.00 0.00 0.00 82 1010.9
20260502013840 53 144 0.0 0.0 0.00 0.00 0.00 82 1010.9
20260502013739 53 144 0.0 0.0 0.00 0.00 0.00 81 1010.8
20260502013705 53 144 0.0 0.0 0.00 0.00 0.00 81 1010.8
20260502013521 53 144 0.0 0.0 0.00 0.00 0.00 81 1010.8
20260502013426 53 144 0.0 0.0 0.00 0.00 0.00 81 1010.8
20260502013332 53 144 0.0 0.0 0.00 0.00 0.00 81 1010.8
20260502013224 53 144 0.0 0.0 0.00 0.00 0.00 80 1010.8